Flight Track Log - Related Links

Times and Time Zones

All times are in EDT time to prevent confusion due to time zone crossing. See the N439AA flight status page for this flight to view local times or setup timezone preferences in your user account.


Time Position Orientation Groundspeed Altitude Reporting Facility
EDT Latitude Longitude Course Direction KTS MPH feet Rate Location/Type
Mon 09:24:15 AM 32.8655 -97.0317 North  Level FlightAware Approximate
Mon 09:25:10 AM 32.9214 -97.0294 12° North 162 186 1,900  Level FAA TRACON SMA TRACON (SMA)
Mon 09:25:50 AM 32.9586 -97.0203 18° North 205 236 3,200 2,593 Climbing FAA TRACON SMA TRACON (SMA)
Mon 09:26:31 AM 33.0008 -97.0039 57° Northeast 232 267 5,400 3,146 Climbing FAA TRACON SMA TRACON (SMA)
Mon 09:27:12 AM 33.0253 -96.9589 100° East 269 310 7,500 2,667 Climbing FAA TRACON SMA TRACON (SMA)
Mon 09:27:52 AM 33.0169 -96.9006 118° Southeast 296 341 9,000 1,875 Climbing FAA TRACON SMA TRACON (SMA)
Mon 09:28:32 AM 32.9869 -96.8322 118° Southeast 343 395 10,000 975 Climbing FAA TRACON SMA TRACON (SMA)
Mon 09:29:12 AM 32.9522 -96.7553 117° Southeast 386 444 10,300 1,443 Climbing FAA TRACON SMA TRACON (SMA)
Mon 09:29:51 AM 32.9217 -96.6853 118° Southeast 388 447 11,900 2,692 Climbing FAA TRACON SMA TRACON (SMA)
Mon 09:30:30 AM 32.8861 -96.6047 118° Southeast 397 457 13,800 2,658 Climbing FAA TRACON SMA TRACON (SMA)
Mon 09:31:10 AM 32.8539 -96.5317 117° Southeast 407 468 15,400 2,444 Climbing FAA TRACON SMA TRACON (SMA)
Mon 09:31:51 AM 32.8172 -96.4472 118° Southeast 416 479 17,100 2,222 Climbing FAA TRACON SMA TRACON (SMA)
Mon 09:32:31 AM 32.7786 -96.3606 107° East 428 493 18,400 1,950 Climbing FAA TRACON SMA TRACON (SMA)
Mon 09:33:11 AM 32.7569 -96.2778 100° East 431 496 19,700 2,127 Climbing FAA TRACON SMA TRACON (SMA)
Mon 09:33:50 AM 32.7431 -96.1806 100° East 432 497 21,200 2,203 Climbing FAA TRACON SMA TRACON (SMA)
Mon 09:34:30 AM 32.7278 -96.0819 99° East 439 505 22,600 1,800 Climbing FAA TRACON SMA TRACON (SMA)
Mon 09:35:10 AM 32.7156 -95.9928 100° East 446 513 23,600 1,575 Climbing FAA TRACON SMA TRACON (SMA)
Mon 09:35:50 AM 32.7003 -95.8906 105° East 457 526 24,700 1,553 Climbing FAA TRACON SMA TRACON (SMA)
Mon 09:36:35 AM 32.6789 -95.7942 97° East 459 528 25,800 1,486 Climbing Fort Worth Center
Mon 09:37:35 AM 32.6622 -95.6417 85° East 464 534 27,300 1,800 Climbing Fort Worth Center
Mon 09:38:35 AM 32.6725 -95.4908 85° East 457 526 29,400 1,700 Climbing Fort Worth Center
Mon 09:39:35 AM 32.6828 -95.3425 86° East 458 527 30,700 1,550 Climbing Fort Worth Center
Mon 09:40:35 AM 32.6925 -95.1819 97° East 458 527 32,500 1,150 Climbing Fort Worth Center
Mon 09:41:35 AM 32.6772 -95.0342 121° Southeast 442 509 33,000 250 Climbing Fort Worth Center
Mon 09:42:35 AM 32.6058 -94.8956 123° Southeast 445 512 33,000  Level Fort Worth Center
Mon 09:43:35 AM 32.5428 -94.7814 124° Southeast 452 520 33,000  Level Fort Worth Center
Mon 09:44:35 AM 32.4625 -94.6386 124° Southeast 469 540 33,000  Level Fort Worth Center
Mon 09:45:35 AM 32.3867 -94.5081 124° Southeast 485 558 33,000  Level Fort Worth Center
Mon 09:46:35 AM 32.3125 -94.3778 125° Southeast 485 558 33,000  Level Fort Worth Center
Mon 09:47:35 AM 32.2361 -94.2475 123° Southeast 479 551 33,000  Level Fort Worth Center
Mon 09:48:35 AM 32.1706 -94.1272 124° Southeast 485 558 33,000  Level Fort Worth Center
Mon 09:49:35 AM 32.0939 -93.9950 125° Southeast 485 558 33,000  Level Fort Worth Center
Mon 09:51:24 AM 31.9533 -93.7594 124° Southeast 484 557 33,000  Level Houston Center
Mon 09:52:24 AM 31.8781 -93.6283 124° Southeast 484 557 33,000  Level Houston Center
Mon 09:53:24 AM 31.8028 -93.4972 124° Southeast 484 557 33,000  Level Houston Center
Mon 09:54:24 AM 31.7272 -93.3667 124° Southeast 489 563 33,000  Level Houston Center
Mon 09:55:24 AM 31.6436 -93.2239 124° Southeast 489 563 33,000  Level Houston Center
Mon 09:56:24 AM 31.5658 -93.0911 125° Southeast 494 568 33,000  Level Houston Center
Mon 09:57:24 AM 31.4878 -92.9608 125° Southeast 494 568 33,000  Level Houston Center
Mon 09:58:24 AM 31.4117 -92.8333 124° Southeast 494 568 33,000  Level Houston Center
Mon 09:59:24 AM 31.3336 -92.6964 125° Southeast 499 574 33,000  Level Houston Center
Mon 10:00:24 AM 31.2553 -92.5669 124° Southeast 499 574 33,000  Level Houston Center
Mon 10:01:24 AM 31.1789 -92.4350 125° Southeast 494 568 33,000  Level Houston Center
Mon 10:02:24 AM 31.1003 -92.3061 125° Southeast 495 570 33,000 -100 Level Houston Center
Mon 10:03:24 AM 31.0217 -92.1772 125° Southeast 495 570 32,800 -700 Descending Houston Center
Mon 10:04:24 AM 30.9406 -92.0436 126° Southeast 500 575 31,600 -1,200 Descending Houston Center
Mon 10:05:24 AM 30.8617 -91.9150 124° Southeast 495 570 30,400 -1,750 Descending Houston Center
Mon 10:06:24 AM 30.7825 -91.7794 126° Southeast 501 577 28,100 -2,350 Descending Houston Center
Mon 10:07:24 AM 30.7011 -91.6489 125° Southeast 501 577 25,700 -2,500 Descending Houston Center
Mon 10:08:24 AM 30.6217 -91.5186 126° Southeast 501 577 23,100 -2,500 Descending Houston Center
Mon 10:09:24 AM 30.5422 -91.3933 127° Southeast 496 571 20,700 -2,450 Descending Houston Center
Mon 10:10:24 AM 30.4669 -91.2756 141° Southeast 486 559 18,200 -2,400 Descending Houston Center
Mon 10:11:24 AM 30.3683 -91.1844 141° Southeast 469 540 15,900 -2,250 Descending Houston Center
Mon 10:12:24 AM 30.2742 -91.0958 143° Southeast 447 514 13,700 -1,965 Descending Houston Center
Mon 10:13:17 AM 30.1944 -91.0267 139° Southeast 417 480 12,200 -1,421 Descending Houston Center
Mon 10:14:18 AM 30.1169 -90.9478 103° East 380 437 11,000 -793 Descending Houston Center
Mon 10:15:18 AM 30.0953 -90.8378 115° Southeast 333 383 10,600 -942 Descending Houston Center
Mon 10:16:19 AM 30.0572 -90.7419 115° Southeast 335 386 9,100 -1,488 Descending Houston Center
Mon 10:17:19 AM 30.0189 -90.6464 114° Southeast 327 376 7,600 -1,392 Descending Houston Center
Mon 10:18:24 AM 29.9847 -90.5581 120° Southeast 321 369 6,200 -1,377 Descending Houston Center
Mon 10:19:21 AM 29.9425 -90.4722 132° Southeast 291 335 4,800 -1,373 Descending Houston Center
Mon 10:20:22 AM 29.8939 -90.4103 115° Southeast 271 312 3,500 -1,180 Descending Houston Center
Mon 10:21:23 AM 29.8661 -90.3411 115° Southeast 221 254 2,400 -1,082 Descending Houston Center

Login

Don't have an account? Register now (free) for customized features, flight alerts, and more!